TKJ4243 LTCK-LTAC

Flight info

Callsign TKJ4243
Flight time N/A
Altitude 38000
Route BAYIR UT368 EZS UL614 GEM UW705 BADOX UL605 BALAX UA17 YUCEL
Aircraft B738/M-SDE2E3FGHIRWXY/LB1

Departure

Time 2026-05-04 17:23
Airport Muş Airport (LTCK)

Arrival

Time N/A
Airport Esenboğa International Airport (LTAC)
Time Latitude Longitude Altitude Speed Heading
2026-05-04 16:41 38.75944 41.64693 4265 ft 0 kts 26°
2026-05-04 17:08 38.75941 41.64691 4285 ft 2 kts 26°
2026-05-04 17:08 38.75905 41.64674 4281 ft 3 kts
2026-05-04 17:08 38.75886 41.64674 4279 ft 3 kts 339°
2026-05-04 17:09 38.75874 41.64683 4281 ft 2 kts 298°
2026-05-04 17:09 38.75873 41.64686 4281 ft 2 kts 296°
2026-05-04 17:13 38.75856 41.64610 4279 ft 11 kts 211°
2026-05-04 17:14 38.75551 41.64416 4274 ft 13 kts 207°
2026-05-04 17:14 38.75477 41.64354 4272 ft 13 kts 231°
2026-05-04 17:14 38.75340 41.64266 4269 ft 13 kts 136°
2026-05-04 17:15 38.75297 41.64363 4268 ft 12 kts 117°
2026-05-04 17:15 38.75224 41.64556 4267 ft 12 kts 115°
2026-05-04 17:16 38.75123 41.64824 4272 ft 25 kts 116°
2026-05-04 17:16 38.74892 41.65424 4270 ft 23 kts 114°
2026-05-04 17:17 38.74824 41.65600 4271 ft 22 kts 121°
2026-05-04 17:17 38.74624 41.66108 4275 ft 20 kts 116°
2026-05-04 17:18 38.74561 41.66267 4277 ft 20 kts 117°
2026-05-04 17:18 38.74445 41.66573 4270 ft 18 kts 116°
2026-05-04 17:19 38.74337 41.66854 4267 ft 17 kts 117°
2026-05-04 17:19 38.74236 41.67117 4269 ft 16 kts 117°
2026-05-04 17:20 38.74141 41.67362 4268 ft 15 kts 117°
2026-05-04 17:20 38.74054 41.67587 4268 ft 13 kts 115°
2026-05-04 17:20 38.74014 41.67692 4267 ft 13 kts 117°
2026-05-04 17:21 38.74018 41.67883 4268 ft 12 kts 33°
2026-05-04 17:21 38.74117 41.67843 4270 ft 0 kts 296°
2026-05-04 17:23 38.74349 41.67238 4262 ft 104 kts 297°
2026-05-04 17:23 38.74760 41.66164 4267 ft 163 kts 295°
2026-05-04 17:23 38.75875 41.63030 4874 ft 206 kts 291°
2026-05-04 17:24 38.76497 41.61331 5248 ft 216 kts 292°
2026-05-04 17:24 38.78633 41.55792 6624 ft 260 kts 295°
2026-05-04 17:25 38.79463 41.53613 6902 ft 281 kts 294°
2026-05-04 17:25 38.81182 41.49049 8274 ft 290 kts 292°
2026-05-04 17:26 38.83356 41.44588 9705 ft 308 kts 318°
2026-05-04 17:26 38.89894 41.44345 10738 ft 365 kts 32°
2026-05-04 17:27 38.93172 41.49302 11655 ft 371 kts 76°
2026-05-04 17:27 38.92607 41.55514 12946 ft 352 kts 129°
2026-05-04 17:28 38.88666 41.58719 14307 ft 340 kts 165°
2026-05-04 17:29 38.81907 41.62144 16251 ft 356 kts 160°
2026-05-04 17:29 38.74824 41.63217 18155 ft 352 kts 202°
2026-05-04 17:30 38.69372 41.56975 19794 ft 362 kts 232°
2026-05-04 17:31 38.66326 41.51755 20840 ft 370 kts 232°
2026-05-04 17:31 38.61597 41.43866 22441 ft 379 kts 232°
2026-05-04 17:32 38.59716 41.37543 23463 ft 393 kts 263°
2026-05-04 17:33 38.60271 41.26895 24749 ft 405 kts 272°
2026-05-04 17:33 38.60539 41.23301 25168 ft 408 kts 271°
2026-05-04 17:34 38.61272 41.12445 26434 ft 414 kts 271°
2026-05-04 17:34 38.61502 41.08768 26820 ft 416 kts 270°
2026-05-04 17:35 38.62185 40.97632 27967 ft 422 kts 270°
2026-05-04 17:35 38.62642 40.90109 28698 ft 427 kts 270°
2026-05-04 17:35 38.62868 40.86367 29020 ft 428 kts 270°
2026-05-04 17:36 38.63096 40.82560 29362 ft 430 kts 270°
2026-05-04 17:36 38.63316 40.78740 29702 ft 431 kts 270°
2026-05-04 17:36 38.63520 40.74901 30006 ft 433 kts 269°
2026-05-04 17:36 38.63717 40.71062 30365 ft 432 kts 269°
2026-05-04 17:37 38.63914 40.67238 30780 ft 430 kts 269°
2026-05-04 17:37 38.64109 40.63431 31154 ft 429 kts 269°
2026-05-04 17:37 38.64304 40.59625 31446 ft 430 kts 269°
2026-05-04 17:37 38.64499 40.55803 31721 ft 431 kts 269°
2026-05-04 17:38 38.64692 40.52034 32065 ft 431 kts 269°
2026-05-04 17:38 38.64886 40.48215 32401 ft 430 kts 269°
2026-05-04 17:38 38.65079 40.44394 32708 ft 430 kts 269°
2026-05-04 17:38 38.65271 40.40577 32990 ft 431 kts 269°
2026-05-04 17:39 38.65651 40.32918 33572 ft 432 kts 269°
2026-05-04 17:39 38.65840 40.29083 33860 ft 432 kts 269°
2026-05-04 17:39 38.66028 40.25244 34100 ft 433 kts 269°
2026-05-04 17:40 38.66212 40.21461 34374 ft 432 kts 269°
2026-05-04 17:40 38.66400 40.17630 34682 ft 431 kts 269°
2026-05-04 17:40 38.66587 40.13814 34956 ft 429 kts 269°
2026-05-04 17:40 38.66774 40.10002 35198 ft 429 kts 269°
2026-05-04 17:41 38.66960 40.06193 35453 ft 429 kts 269°
2026-05-04 17:41 38.67144 40.02387 35678 ft 429 kts 269°
2026-05-04 17:41 38.67326 39.98583 35928 ft 428 kts 269°
2026-05-04 17:41 38.67507 39.94785 36181 ft 427 kts 269°
2026-05-04 17:42 38.67686 39.90993 36407 ft 427 kts 269°
2026-05-04 17:42 38.67861 39.87250 36609 ft 427 kts 269°
2026-05-04 17:42 38.68038 39.83461 36808 ft 427 kts 269°
2026-05-04 17:42 38.68213 39.79671 36997 ft 427 kts 269°
2026-05-04 17:43 38.68387 39.75880 37205 ft 427 kts 268°
2026-05-04 17:43 38.68560 39.72089 37385 ft 427 kts 268°
2026-05-04 17:43 38.68732 39.68294 37568 ft 427 kts 268°
2026-05-04 17:43 38.68903 39.64503 37785 ft 426 kts 268°
2026-05-04 17:44 38.69073 39.60710 37907 ft 427 kts 268°
2026-05-04 17:44 38.69241 39.56906 37916 ft 430 kts 268°
2026-05-04 17:44 38.69580 39.49306 37915 ft 430 kts 269°
2026-05-04 17:45 38.69934 39.41671 37915 ft 429 kts 269°
2026-05-04 17:45 38.70282 39.34043 37921 ft 429 kts 269°
2026-05-04 17:46 38.70623 39.26423 37911 ft 429 kts 269°
2026-05-04 17:46 38.71258 39.18866 37913 ft 433 kts 276°
2026-05-04 17:47 38.72430 39.11306 37913 ft 433 kts 276°
2026-05-04 17:47 38.73593 39.03730 37900 ft 433 kts 276°
2026-05-04 17:48 38.74724 38.96140 37893 ft 434 kts 276°
2026-05-04 17:48 38.75840 38.88586 37885 ft 435 kts 276°
2026-05-04 17:49 38.76988 38.80959 37885 ft 437 kts 276°
2026-05-04 17:49 38.78145 38.73297 37875 ft 439 kts 276°
2026-05-04 17:50 38.79299 38.65611 37884 ft 440 kts 276°